Weather in Kora-Ursdon

Russia / Republic of North Ossetia — Alania     43°05′48″N   44°05′33″E
temp.,
°C
wind,
m/s
gust,
m/s
humid.,
%
clouds,
%
prec.,
mm/h
press.,
hPa
HPBL,
m
22 may, sun
sun2200:00+5ssw55651 0.0 101670
03:00+5ssw55651 0.0 101470
06:00+8ssw45610 0.0 101199
09:00+16ne12410 0.0 1008722
12:00+19ne33380 0.0 10061119
15:00+19ene25390 0.0 10041473
18:00+16ese12600 0.0 1004119
21:00+10ssw44520 0.0 100656
23 may, mon
mon2300:00+9ssw43541 0.0 100548
03:00+8ssw336639 0.0 100539
06:00+10s12712 0.0 1004121
09:00+13nne326785 0.0 1003772
12:00+10nne2292100 1.1 1003447
15:00+9n1299100 7.1 1003156
18:00+8n36100100 17.4 1003432
21:00+7nnw24100100 33.1 1006438
24 may, tue
tue2400:00+6n1297100 4.8 1007324
03:00+6w0196100 7.4 1007128
06:00+5nnw1198100 2.9 1009143
09:00+5nne1198100 8.1 1011159
12:00+5nne1198100 1.8 1012228
15:00+5ene1197100 3.4 1012174
18:00+5nw1198100 0.9 1014124
21:00+4wsw1197100 2.4 1016120
25 may, wed
wed2500:00+4sw0197100 0.6 1017132
03:00+4nnw1199100 2.4 1018200
06:00+4n1198100 2.2 1019173
09:00+4ne1198100 4.1 1021141
12:00+9ne217655 0.6 1019857
15:00+8nne228795 1.5 1020507
18:00+7nne119695 1.8 1021185
21:00+6n1198100 3.4 102374
26 may, thu
thu2600:00+5w119794 1.0 1023135
03:00+5sw118981 1.1 102421
06:00+5ssw118684 0.0 102441
09:00+7nne218757 0.1 1023477
12:00+11ne326787 0.3 10211104
15:00+12ne327167 0.6 1021877
18:00+11ene2278100 0.1 1020415
21:00+7sw3379100 0.1 102139